Retour au catalogue

CZ-4C R/B

ActifPO
NORAD 57491·ROCKET BODY·🇨🇳 China

Lancé Aug 3, 2023 depuis Jiuquan Satellite Launch Center

Loading…

Prochains Passages (prochaines 24 heures)

TLE

FraisSource: Space-Track

Époque: Sep 14, 2026, 16:23 UTC

1 57491U 23111B   26257.68327946  .00000466  00000-0  10230-3 0  9996
2 57491  98.8380  41.5100 0136622 174.0262 186.2604 14.57320305165703

Suivez CZ-4C R/B en temps réel avec AllMySat

Download on the App Store